Location: Unspecified
(41.5516°N, 88.1098°W)
Time: 04:14:40
(UTC-06:00)

Okean 3 - Visible Passes

Search period start: 04 December 2016 00:00
Search period end: 14 December 2016 00:00
Orbit: 578 x 603 km, 82.5° (Epoch: 03 December)

Date Brightness Start Highest point End Pass type
(mag) Time Alt. Az. Time Alt. Az. Time Alt. Az.
04 Dec 4.2 17:05:48 10° SSW 17:10:02 58° W 17:14:16 10° N visible
05 Dec 5.0 17:14:27 10° SSW 17:18:27 38° WNW 17:22:28 10° N visible
06 Dec 5.7 17:23:19 10° SW 17:26:55 26° WNW 17:30:31 10° NNW visible
07 Dec 6.2 17:32:30 10° WSW 17:35:25 18° WNW 17:38:21 10° NNW visible
08 Dec 6.5 17:42:16 10° W 17:43:58 12° WNW 17:45:42 10° NW visible
